www.pogodaiklimat.ru

Погода и климат >> Архив погоды >> Бразилия >> Gilbues


ПОГОДА в Gilbues

  • Прогноз погоды в Gilbues
  • Монитор погоды в Gilbues
  • Климат города

АРХИВ ПОГОДЫ в Gilbues

Время (UTC), дата Ветер
(напр.,м/с)
 
Видим.   Явления Облачность Т
(С)
Тd
(С)
f
(%)
Тe
(С)
Тes
(С)
Комфортность P
(гПа)
Po
(гПа)
Тmin
(С)
Tmax
(С)
R
(мм)
R24
(мм)
S
(см)
23 13.11 В 1
{2}
н/о н/о +26.9 +20.2 67 +33 +33 очень
душно
1009.2 961.5
22 13.11 СВ 1
{2}
н/о н/о +28.2 +20.0 61 +34 +34 очень
душно
1007.9 960.5
00 14.11 Ю 1
{2}
н/о н/о +28.2 +19.3 59 +34 +34 очень
душно
1009.3 961.8
01 14.11 В 1
{2}
н/о н/о +27.2 +19.8 64 +33 +33 очень
душно
1010.0 962.3
02 14.11 ЮВ 2
{2}
н/о н/о +27.4 +19.4 62 +33 +33 очень
душно
1010.0 962.3
03 14.11 ЮВ 1
{3}
н/о н/о +27.3 +19.2 61 +33 +33 очень
душно
1009.0 961.4
05 14.11 В 1
{2}
н/о н/о +25.0 +19.2 70 +30 +30 душно 1008.7 960.7
04 14.11 ЮВ 1
{3}
н/о н/о +26.1 +19.1 65 +31 +31 очень
душно
1008.7 960.9
06 14.11 ЮВ 1
{2}
н/о н/о +25.1 +19.2 70 +30 +30 душно 1009.0 961.0
07 14.11 ЮЗ 1
{2}
н/о н/о +24.4 +20.5 79 +30 +30 очень
душно
1009.9 961.8
08 14.11 штиль 0
{1}
н/о н/о +24.1 +21.1 83 +30 +30 очень
душно
1010.8 962.6
09 14.11 СВ 1
{3}
н/о н/о +23.9 +19.9 78 +29 +29 душно 1011.3 963.0
11 14.11 В 1
{3}
н/о н/о +27.9 +19.3 60 +34 +34 очень
душно
1011.7 964.0
10 14.11 В 2
{3}
н/о н/о +26.3 +18.5 62 +31 +31 душно 1011.5 963.6
12 14.11 В 2
{4}
н/о н/о +29.2 +18.1 51 +34 +34 очень
душно
1011.9 964.4
13 14.11 В 2
{4}
н/о н/о +30.2 +18.1 48 +35 +35 очень
душно
1011.5 964.2
14 14.11 В 2
{4}
н/о н/о +31.2 +18.0 45 +35 +35 очень
душно
1010.3 963.2
15 14.11 В 2
{4}
н/о н/о +32.1 +17.7 42 +36 +36 очень
душно
1009.3 962.4
17 14.11 В 2
{4}
н/о н/о +33.2 +17.5 39 +37 +37 очень
душно
1006.7 960.1
16 14.11 В 2
{4}
н/о н/о +32.2 +17.5 42 +36 +36 очень
душно
1008.0 961.2
18 14.11 В 2
{4}
н/о н/о +33.4 +17.9 40 +38 +38 очень
душно
1005.8 959.2
19 14.11 В 1
{3}
н/о н/о +33.6 +17.2 38 +37 +37 очень
душно
1005.5 959.0
20 14.11 В 1
{3}
н/о н/о +32.8 +17.1 39 +36 +36 очень
душно
1005.4 958.8
21 14.11 В 1
{2}
н/о н/о +31.3 +17.5 44 +35 +35 очень
душно
1005.9 959.0
23 14.11 В 1
{1}
н/о н/о +27.1 +19.9 65 +33 +33 очень
душно
1007.7 960.1
22 14.11 ЮВ 1
{1}
н/о н/о +29.0 +18.6 53 +34 +34 очень
душно
1006.8 959.5
00 15.11 СВ 1
{1}
н/о н/о +26.4 +20.5 70 +33 +33 очень
душно
1008.7 960.9
01 15.11 СЗ 1
{1}
н/о н/о +26.2 +20.1 69 +32 +32 очень
душно
1008.9 961.1
02 15.11 С 1
{1}
н/о н/о +25.8 +19.7 69 +31 +31 очень
душно
1008.8 960.9
03 15.11 СЗ 1
{2}
н/о н/о +25.9 +19.3 67 +31 +31 очень
душно
1009.2 961.3
05 15.11 СЗ 1
{2}
н/о н/о +25.4 +20.3 73 +31 +31 очень
душно
1008.7 960.8
04 15.11 З 1
{2}
н/о н/о +25.3 +19.6 71 +31 +31 очень
душно
1008.9 961.0
06 15.11 СЗ 1
{2}
н/о н/о +24.9 +21.0 79 +31 +31 очень
душно
1009.0 961.0
07 15.11 З 1
{2}
н/о н/о +24.6 +21.5 83 +31 +31 очень
душно
1009.3 961.2
08 15.11 ЮЗ 1
{1}
н/о н/о +24.0 +21.5 86 +31 +31 очень
душно
1009.6 961.4
09 15.11 Ю 1
{1}
н/о н/о +23.8 +21.8 89 +31 +31 очень
душно
1009.9 961.7
11 15.11 Ю 1
{2}
н/о н/о +29.2 +20.3 59 +36 +36 очень
душно
1010.5 963.1
10 15.11 ЮЗ 1
{1}
н/о н/о +27.0 +21.3 71 +34 +34 очень
душно
1010.4 962.7
12 15.11 Ю 1
{3}
н/о н/о +30.8 +20.3 54 +38 +38 очень
душно
1010.3 963.1
13 15.11 ЮВ 2
{3}
н/о н/о +30.8 +19.7 52 +37 +37 очень
душно
1009.8 962.7
14 15.11 ЮВ 2
{4}
н/о н/о +32.4 +20.3 49 +39 +39 очень
душно
1009.2 962.3
15 15.11 В 2
{4}
н/о н/о +33.3 +18.7 42 +38 +38 очень
душно
1008.1 961.4
17 15.11 В 2
{4}
н/о н/о +34.1 +18.2 39 +38 +38 очень
душно
1005.9 959.4
16 15.11 В 2
{4}
н/о н/о +33.2 +18.1 41 +38 +38 очень
душно
1006.9 960.3
18 15.11 В 1
{4}
н/о н/о +34.6 +18.3 38 +39 +39 очень
душно
1004.9 958.6
19 15.11 В 1
{3}
н/о н/о +33.9 +16.7 36 +37 +37 очень
душно
1004.7 958.3
20 15.11 СВ 1
{3}
н/о н/о +33.7 +16.2 35 +36 +36 очень
душно
1005.1 958.6
21 15.11 СВ 1
{2}
н/о н/о +31.1 +16.7 42 +34 +34 душно 1006.1 959.2
23 15.11 З 1
{3}
н/о н/о +27.3 +20.8 68 +34 +34 очень
душно
1008.1 960.5
22 15.11 ЮЗ 1
{3}
н/о н/о +28.5 +20.5 62 +35 +35 очень
душно
1007.1 959.7
01 16.11 штиль 0
{1}
н/о н/о +25.2 +21.2 79 +32 +32 очень
душно
1009.4 961.4
02 16.11 штиль 0
{1}
н/о н/о +24.3 +21.4 84 +31 +31 очень
душно
1009.6 961.5
03 16.11 штиль 0
{1}
н/о н/о +24.3 +21.2 83 +31 +31 очень
душно
1009.7 961.6
05 16.11 З 1
{3}
н/о н/о +24.8 +20.9 79 +31 +31 очень
душно
1009.4 961.4
04 16.11 З 1
{1}
н/о н/о +24.8 +21.3 81 +31 +31 очень
душно
1009.4 961.4
06 16.11 штиль 0
{1}
н/о н/о +24.8 +20.9 79 +31 +31 очень
душно
1009.3 961.3
07 16.11 ЮЗ 1
{2}
н/о н/о +24.9 +20.9 78 +31 +31 очень
душно
1009.5 961.5
08 16.11 ЮВ 2
{3}
н/о н/о +25.1 +20.9 78 +32 +32 очень
душно
1010.6 962.5
09 16.11 СВ 1
{3}
н/о н/о +23.5 +21.6 89 +30 +30 очень
душно
1011.4 963.1 2
11 16.11 З 1
{2}
н/о н/о +25.7 +22.2 81 +33 +33 очень
душно
1011.9 963.9
10 16.11 СЗ 1
{3}
н/о н/о +23.7 +21.9 90 +31 +31 очень
душно
1012.1 963.8 1
12 16.11 З 1
{2}
н/о н/о +27.0 +22.5 76 +35 +35 очень
душно
1012.5 964.7
13 16.11 СЗ 1
{2}
н/о н/о +29.2 +22.1 66 +38 +38 очень
душно
1011.8 964.3
14 16.11 С 1
{2}
н/о н/о +29.6 +20.8 59 +37 +37 очень
душно
1011.0 963.6
15 16.11 В 2
{3}
н/о н/о +31.2 +20.3 52 +38 +38 очень
душно
1009.8 962.7
17 16.11 В 2
{4}
н/о н/о +33.1 +19.1 44 +38 +38 очень
душно
1007.6 960.9
16 16.11 В 2
{4}
н/о н/о +32.2 +20.5 50 +39 +39 очень
душно
1008.7 961.8
18 16.11 С 2
{5}
н/о н/о +29.4 +21.2 61 +37 +37 очень
душно
1007.6 960.4
19 16.11 СЗ 2
{4}
н/о н/о +28.7 +21.0 63 +36 +36 очень
душно
1007.4 960.1
20 16.11 З 1
{3}
н/о н/о +28.2 +21.5 67 +36 +36 очень
душно
1007.7 960.3
21 16.11 СЗ 1
{3}
н/о н/о +26.8 +21.2 71 +34 +34 очень
душно
1008.7 961.0
23 16.11 З 1
{2}
н/о н/о +25.4 +21.0 77 +32 +32 очень
душно
1010.0 962.0
22 16.11 З 1
{2}
н/о н/о +26.0 +21.3 75 +33 +33 очень
душно
1009.2 961.4
00 17.11 З 1
{2}
н/о н/о +24.5 +21.5 83 +31 +31 очень
душно
1010.7 962.5
01 17.11 З 1
{1}
н/о н/о +24.6 +22.0 85 +32 +32 очень
душно
1011.3 963.1
02 17.11 СЗ 1
{2}
н/о н/о +24.6 +21.5 83 +31 +31 очень
душно
1011.4 963.2
03 17.11 СЗ 1
{2}
н/о н/о +24.2 +21.6 85 +31 +31 очень
душно
1010.7 962.5
05 17.11 СЗ 1
{1}
н/о н/о +23.4 +21.8 91 +32 +32 очень
душно
1010.5 962.2
04 17.11 З 1
{2}
н/о н/о +23.7 +21.6 88 +30 +30 очень
душно
1010.7 962.4
06 17.11 З 1
{1}
н/о н/о +22.9 +21.6 92 +31 +31 очень
душно
1010.6 962.2
07 17.11 С 1
{1}
н/о н/о +22.7 +21.6 94 +30 +30 очень
душно
1011.7 963.2
08 17.11 Ю 1
{1}
н/о н/о +22.2 +21.1 93 +29 +29 очень
душно
1012.0 963.4
09 17.11 штиль 0
{1}
н/о н/о +22.9 +21.8 94 +31 +31 очень
душно
1012.6 964.1
11 17.11 ЮВ 1
{2}
н/о н/о +26.1 +21.2 74 +33 +33 очень
душно
1013.6 965.6
10 17.11 ЮВ 1
{2}
н/о н/о +24.6 +21.4 82 +31 +31 очень
душно
1013.0 964.8
12 17.11 В 1
{2}
н/о н/о +28.2 +20.3 62 +35 +35 очень
душно
1013.5 965.8
13 17.11 В 1
{4}
н/о н/о +29.2 +19.5 56 +35 +35 очень
душно
1013.1 965.6
14 17.11 В 2
{4}
н/о н/о +30.1 +19.8 54 +36 +36 очень
душно
1012.4 965.0
15 17.11 В 2
{4}
н/о н/о +31.6 +18.4 45 +36 +36 очень
душно
1011.3 964.2
17 17.11 В 2
{4}
н/о н/о +32.7 +17.2 40 +36 +36 очень
душно
1008.9 962.1
16 17.11 В 1
{4}
н/о н/о +31.9 +17.5 42 +36 +36 очень
душно
1010.2 963.2
18 17.11 ЮВ 2
{4}
н/о н/о +33.3 +17.1 38 +37 +37 очень
душно
1007.8 961.1
19 17.11 В 2
{3}
н/о н/о +33.4 +17.4 39 +37 +37 очень
душно
1007.2 960.6
20 17.11 В 1
{3}
н/о н/о +31.9 +17.4 42 +36 +36 очень
душно
1007.3 960.4
21 17.11 Ю 1
{3}
н/о н/о +30.5 +17.8 47 +35 +35 очень
душно
1007.9 960.8
23 17.11 З 1
{2}
н/о н/о +28.0 +20.2 63 +34 +34 очень
душно
1009.9 962.3
22 17.11 СЗ 1
{2}
н/о н/о +29.6 +18.6 52 +35 +35 очень
душно
1008.7 961.4
00 18.11 З 1
{1}
н/о н/о +27.4 +20.7 67 +34 +34 очень
душно
1010.7 963.0
01 18.11 СЗ 1
{1}
н/о н/о +26.5 +21.0 72 +33 +33 очень
душно
1011.1 963.2
02 18.11 З 1
{1}
н/о н/о +26.7 +21.1 71 +34 +34 очень
душно
1011.2 963.4
03 18.11 штиль 0
{1}
н/о н/о +25.1 +21.4 80 +32 +32 очень
душно
1011.2 963.1
05 18.11 штиль 0
{1}
н/о н/о +23.5 +20.8 85 +29 +29 душно 1010.5 962.2
04 18.11 СЗ 1
{2}
н/о н/о +24.8 +20.9 79 +31 +31 очень
душно
1010.9 962.8
06 18.11 штиль 0
{1}
н/о н/о +22.7 +20.7 88 +30 +30 очень
душно
1010.6 962.2
07 18.11 В 1
{1}
н/о н/о +23.2 +20.9 87 +31 +31 очень
душно
1010.8 962.4
08 18.11 СВ 1
{1}
н/о н/о +22.1 +20.7 92 +28 +28 душно 1011.2 962.6
09 18.11 В 1
{2}
н/о н/о +23.7 +20.3 81 +29 +29 душно 1011.7 963.4
11 18.11 В 2
{4}
н/о н/о +27.8 +16.3 50 +31 +31 душно 1012.6 964.9
10 18.11 В 2
{4}
н/о н/о +25.9 +16.7 57 +30 +30 душно 1012.3 964.3
12 18.11 В 3
{5}
н/о н/о +28.9 +16.3 46 +32 +32 душно 1012.7 965.1
13 18.11 В 3
{5}
н/о н/о +30.4 +17.1 45 +34 +34 очень
душно
1012.3 965.0
14 18.11 В 2
{5}
н/о н/о +32.2 +16.9 40 +36 +36 очень
душно
1011.6 964.6
15 18.11 В 2
{6}
н/о н/о +32.8 +15.5 35 +35 +35 душно 1010.6 963.7
17 18.11 В 2
{5}
н/о н/о +34.8 +14.5 30 +36 +36 душно 1008.0 961.5
16 18.11 В 2
{5}
н/о н/о +34.8 +15.3 31 +37 +37 очень
душно
1009.0 962.5
18 18.11 В 1
{4}
н/о н/о +34.3 +14.1 30 +35 +35 очень
жарко
1007.2 960.7
19 18.11 ЮВ 2
{4}
н/о н/о +35.0 +13.4 27 +35 +35 очень
жарко
1006.6 960.2
20 18.11 В 1
{4}
н/о н/о +34.2 +13.3 28 +35 +35 очень
жарко
1006.5 960.0
21 18.11 В 1
{2}
н/о н/о +31.6 +14.6 36 +34 +34 душно 1007.3 960.4
23 18.11 В 1
{1}
н/о н/о +26.9 +16.5 53 +30 +30 душно 1009.2 961.5
22 18.11 В 1
{1}
н/о н/о +28.6 +16.9 49 +32 +32 душно 1008.3 960.9
00 19.11 В 1
{1}
н/о н/о +26.1 +17.0 57 +30 +30 душно 1010.0 962.1
01 19.11 С 1
{2}
н/о н/о +25.8 +17.9 62 +30 +30 душно 1010.8 962.8
02 19.11 В 1
{2}
н/о н/о +26.9 +16.2 52 +30 +30 душно 1010.9 963.1
03 19.11 В 1
{2}
н/о н/о +26.3 +16.4 54 +30 +30 душно 1010.5 962.6
05 19.11 В 1
{2}
н/о н/о +24.4 +16.2 60 +28 +28 душно 1009.9 961.8
04 19.11 В 1
{2}
н/о н/о +24.7 +16.9 62 +28 +28 душно 1010.3 962.2
06 19.11 В 1
{2}
н/о н/о +23.3 +16.4 65 +28 +28 душно 1009.9 961.6
07 19.11 В 1
{2}
н/о н/о +23.8 +14.9 57 +27 +27 жарко 1010.0 961.8
08 19.11 В 1
{3}
н/о н/о +24.2 +13.6 52 +26 +26 жарко 1010.4 962.2
09 19.11 В 3
{6}
н/о н/о +25.5 +13.3 47 +28 +28 жарко 1010.9 962.9
11 19.11 В 3
{6}
н/о н/о +26.7 +15.2 49 +29 +29 жарко 1012.1 964.2
10 19.11 В 3
{6}
н/о н/о +26.0 +14.3 48 +28 +28 жарко 1011.7 963.7
12 19.11 ЮВ 2
{6}
н/о н/о +28.5 +15.7 46 +32 +32 душно 1012.3 964.7
13 19.11 В 2
{4}
н/о н/о +30.2 +15.8 42 +33 +33 душно 1011.9 964.6
14 19.11 ЮВ 2
{4}
н/о н/о +31.5 +16.0 39 +34 +34 душно 1011.1 964.0
15 19.11 В 2
{5}
н/о н/о +33.6 +17.3 38 +37 +37 очень
душно
1009.8 963.1
17 19.11 ЮВ 2
{4}
н/о н/о +34.7 +12.7 27 +35 +35 очень
жарко
1007.3 960.9
16 19.11 ЮВ 2
{5}
н/о н/о +33.8 +14.3 31 +35 +35 очень
жарко
1008.5 961.9
18 19.11 В 2
{4}
н/о н/о +34.4 +10.9 24 +34 +34 очень
жарко
1006.4 960.0
19 19.11 ЮВ 2
{5}
н/о н/о +35.3 +11.0 23 +35 +35 очень
жарко
1005.6 959.3
20 19.11 ЮВ 2
{3}
н/о н/о +34.2 +10.3 23 +33 +33 жарко 1005.5 959.1
21 19.11 ЮВ 1
{3}
н/о н/о +31.7 +11.2 28 +32 +32 жарко 1006.4 959.6
23 19.11 штиль 0
{1}
н/о н/о +25.8 +14.8 51 +29 +29 душно 1009.0 961.1
22 19.11 В 1
{2}
н/о н/о +27.9 +13.8 42 +30 +30 жарко 1007.8 960.3
01 20.11 штиль 0
{1}
н/о н/о +23.0 +15.7 63 +27 +27 душно 1011.0 962.6
02 20.11 Ю 1
{2}
н/о н/о +25.6 +14.7 51 +28 +28 жарко 1010.5 962.5
03 20.11 СВ 1
{2}
н/о н/о +23.4 +15.2 60 +28 +28 душно 1010.4 962.1
05 20.11 В 1
{1}
н/о н/о +21.4 +16.0 71 +25 +25 комфорт 1009.9 961.3
04 20.11 В 1
{2}
н/о н/о +24.3 +15.1 56 +27 +27 жарко 1009.9 961.8
06 20.11 В 1
{2}
н/о н/о +22.5 +15.3 64 +26 +26 жарко 1009.4 961.0
07 20.11 ЮВ 1
{4}
н/о н/о +22.4 +14.9 63 +26 +26 жарко 1010.2 961.7
08 20.11 В 1
{1}
н/о н/о +21.0 +15.2 69 +26 +26 душно 1010.6 961.9
09 20.11 В 1
{2}
н/о н/о +22.7 +15.1 62 +27 +27 душно 1011.4 962.9
11 20.11 В 3
{5}
н/о н/о +28.7 +14.0 41 +31 +31 жарко 1012.2 964.6
10 20.11 В 1
{3}
н/о н/о +27.1 +13.3 43 +29 +29 жарко 1011.7 963.9
12 20.11 В 2
{5}
н/о н/о +29.6 +13.3 37 +31 +31 жарко 1012.7 965.2
13 20.11 В 2
{5}
н/о н/о +31.6 +14.3 35 +33 +33 жарко 1012.1 965.0
14 20.11 В 2
{5}
н/о н/о +32.9 +14.8 34 +35 +35 душно 1011.0 964.1
15 20.11 В 2
{4}
н/о н/о +34.5 +13.8 29 +35 +35 очень
жарко
1009.6 963.0
17 20.11 ЮВ 1
{7}
н/о н/о +34.3 +12.6 27 +35 +35 очень
жарко
1007.1 960.6
16 20.11 В 1
{4}
н/о н/о +35.3 +12.1 25 +35 +35 очень
жарко
1008.1 961.7
18 20.11 В 2
{4}
н/о н/о +35.2 +10.3 22 +34 +34 очень
жарко
1005.9 959.6
19 20.11 В 1
{4}
н/о н/о +35.1 +10.8 23 +34 +34 очень
жарко
1005.6 959.3
20 20.11 Ю 1
{3}
н/о н/о +35.0 +10.9 23 +34 +34 очень
жарко
1005.6 959.3
21 20.11 ЮВ 1
{3}
н/о н/о +33.0 +11.3 27 +33 +33 жарко 1006.3 959.7

 

Местоположение метеостанции Gilbues (Бразилия): широта -9.87 долгота -45.35 высота над уровнем моря 427 м.

В архиве по умолчанию представлена погода в Gilbues за последнюю неделю. Архивные данные за месяц целиком и за предыдущие месяцы, начиная с января 2011 года, Вы можете получить, выбрав интересующий диапазон дат из раскрывающегося списка и нажав кнопку "Ввод!".


*Определитесь, кто Вы:
робот инопланетянин человек

Внимание! Время в таблицах - всемирное. Для получения местного времени необходимо прибавить поправку, которая в Gilbues равна -3 ч.

Смотрите также архив погоды в соседних городах и на ближайших метеорологических станциях:

Погода в Alto Parnaiba (Бразилия) (107 км)
Погода в Bom Jesus do Piaui (Бразилия) (142 км)
Погода в Santa Rita de Cassia (Бразилия) (156 км)
Погода в Buritirama (Бразилия) (209 км)
Погода в Alvorada do Gurgueia (Бразилия) (227 км)
Погода в Caracol (Бразилия) (232 км)
Погода в Dianopolis (Бразилия) (253 км)
Погода в Barreiras (Бразилия) (256 км)
Погода в Barreiras (Бразилия) (256 км)
Погода в Luis Eduardo Magalhaes (Бразилия) (259 км)

Пояснения к столбцам:

Ветер - указаны скорость ветра в м/с - средняя за 10 мин, порывы в срок и между сроками (в фигурных скобках) и направление, откуда дует ветер: С - северный, СВ - северо-восточный, В - восточный, ЮВ - юго-восточный, Ю - южный, ЮЗ - юго-западный, З - западный, СЗ - северо-западный.
Видимость - горизонтальная дальность видимости в метрах или километрах. При видимости от 1 до 10 км при отсутствии осадков обычно наблюдается дымка, при ухудшении видимости до 1 км и менее - туман. В сухую погоду видимость может ухудшаться дымом, пылью или мглою.
Явления - указаны атмосферные явления, наблюдавшиеся в срок или в последний час перед сроком; фигурными скобками обозначены явления, наблюдавшиеся между сроками (за 1-3 часа до срока); квадратными скобками обозначены град или гололедные отложения с указанием их диаметра в мм.
Облачность - указаны через наклонную черту общая и нижняя облачность в баллах и высота нижней границы облаков в метрах; квадратными скобками обозначены формы облаков: Ci - перистые, Cs - перисто-слоистые, Cc - перисто-кучевые, Ac - высококучевые, As - высокослоистые, Sc - слоисто-кучевые, Ns - слоисто-дождевые, Cu - кучевые, Cb - кучево-дождевые. Подробнее классификацию облаков см. в Атласе облаков (PDF).
T - Температура воздуха - температура, измеренная на высоте 2 м над землей.
Td - Температура точки росы - температура, при понижении до которой содержащийся в воздухе водяной пар достигнет насыщения.
f - Относительная влажность воздуха - влажноcть воздуха, измеренная на высоте 2 м над землей.
Te - Эффективная температура - температура, которую ощущает одетый по сезону человек в тени. Характеристика душности погоды. При расчете учитывается влияние влажности воздуха и скорости ветра на теплоощущения человека.
Tes - Эффективная температура на солнце - температура, которую ощущает человек, с поправкой на солнечный нагрев. Характеристика знойности погоды. Зависит от высоты солнца над горизонтом, облачности и скорости ветра. Ночью, в пасмурную погоду, а также при ветре 12 м/с и более поправка равна нулю.
P - Атмосферное давление - приведенное к уровню моря атмосферное давление.
Po - Атмосферное давление - измеренное на уровне метеостанции атмосферное давление.
Tmin - Минимальная температура - минимум температуры воздуха на высоте 2 м над землей.
Tmax - Максимальная температура - максимум температуры воздуха на высоте 2 м над землей.
R - Количество осадков - Количество выпавших осадков за период времени, мм. При наведении курсора мыши на число - период времени, за который выпало указанное количество осадков.
R24 - Количество осадков - Количество выпавших осадков за 24 часа, мм.
S - Снежный покров - Высота снежного покрова, см. При наведении курсора мыши на число - состояние снежного покрова и степень покрытия местности в баллах.